Regional Weather Roundup
Issued by NWS Wakefield, VA

Home | Current Version | Previous Version | Graphics & Text | Print | Product List | Glossary On
Versions: 1 2 3 4 5 6 7 8 9 10 11 12 13 14 15 16 17 18 19 20 21 22 23 24 25 26 27
000
ASUS41 KAKQ 231215
RWRAKQ

REGIONAL WEATHER ROUNDUP
NATIONAL WEATHER SERVICE WAKEFIELD VA
800 AM EDT FRI JUN 23 2017

Note: "fair" indicates few or no clouds below 12,000 feet with no
significant weather and/or obstructions to visibility. * = Denotes
station may not report precipitation (e.g., rain,snow,etc.),
thunder or fog.

VAZ042-051-052>054-056-231300-
NORTHERN VIRGINIA

CITY           SKY/WX    TMP DP  RH WIND       PRES   REMARKS
WASH NATIONAL  CLOUDY    74  73  97 S15       29.87F
DULLES         CLOUDY    72  69  90 S13       29.86F
FORT BELVOIR   CLOUDY    73  70  88 S5        29.87F
QUANTICO       LGT RAIN  75  73  93 SW14      29.88F
FREDERICKSBRG* CLOUDY    74  74 100 S9        29.88F
STAFFORD*      CLOUDY    72  72 100 SW5       29.93S
WARRENTON      CLOUDY    73  69  85 S6        29.87F
CULPEPER*      PTSUNNY   73  72  94 S8        29.89F
MANASSAS*      CLOUDY    72  70  93 S8        29.87F
LEESBURG*      CLOUDY    73  73 100 S10       29.87F
WINCHESTER     CLOUDY    70  68  94 SW7       29.85F
FRONT ROYAL*   CLOUDY    70  68  94 SW7       29.85F
LURAY*         PTSUNNY   72  68  88 SW12      29.88F
$$

VAZ048-049-060>072-079>083-231300-
CENTRAL AND SOUTH CENTRAL VIRGINIA

CITY           SKY/WX    TMP DP  RH WIND       PRES   REMARKS
RICHMOND       CLOUDY    74  73  97 S10       29.94F
CHESTERFIELD*  NOT AVBL
PETERSBURG*    LGT RAIN  73  72  96 CALM      29.96S
HANOVER        CLOUDY    74  70  87 S8        29.94F
TAPPAHANNOCK*  RAIN      73  73 100 S3        29.94S
QUINTON*       CLOUDY    73  73 100 S6        29.94F
CHARLOTTSVILLE PTSUNNY   74  71  91 S10       29.90S
GORDONSVILLE*  CLOUDY    72  72  99 SW12      29.89F
ORANGE*        CLOUDY    72  70  94 SW10G16   29.89S
LOUISA*        LGT RAIN  75  73  94 S6        29.90F
BUMPASS*       CLOUDY    72  72 100 SW8       29.91F
FARMVILLE*     CLOUDY    75  72  89 SW7       29.93S
CREWE*         CLOUDY    74  69  87 SW3       29.95S
FORT PICKETT*  PTSUNNY  N/A N/A N/A SW12G17   29.96S
CHASE CITY*    PTSUNNY   74  73  99 S3        29.98S
CLARKSVILLE*   FAIR      72  72 100 S6        29.98R
SOUTH HILL*    CLOUDY    73  72  96 S9        30.04S
LAWRENCEVILLE* FAIR      74  72  94 MISG      29.97F
EMPORIA*       LGT RAIN  72  70  94 S3        29.99S
$$

VAZ088>098-231300-
SOUTHEAST VIRGINIA

CITY           SKY/WX    TMP DP  RH WIND       PRES   REMARKS
NORFOLK        CLOUDY    78  71  79 SW10      29.96S
VIRGINIA BEACH CLOUDY    76  69  79 SW7       29.97R
NORFOLK NAVAL  LGT RAIN  77  70  79 SW7       29.98R
WEST POINT*    CLOUDY    74  73  94 CALM      29.96R
SALUDA*        CLOUDY    73  73 100 SW3       29.94S
NEWPORT NEWS   CLOUDY    75  71  87 SW9       29.96S
LANGLEY AFB    PTSUNNY   75  72  88 SW9       29.96R
FORT EUSTIS    PTSUNNY   75  71  87 SW5       29.94S
WILLIAMSBURG*  CLOUDY    75  73  94 CALM      29.97R
HR EXEC AP*    PTSUNNY   75  70  83 SW8       29.96R
FRANKLIN*      CLOUDY    73  72  94 SW9       29.98S
US460-WAKEFLD  CLOUDY    75  71  87 SW6       29.97R
$$

VAZ020-022-025-037-045-231300-
WEST CENTRAL AND SOUTHWEST VIRGINIA

CITY           SKY/WX    TMP DP  RH WIND       PRES   REMARKS
STAUNTON*      CLOUDY    71  68  91 S6        29.93F
WAYNESBORO*    CLOUDY    71  70  97 SW3       29.94S
HOT SPRINGS VA LGT RAIN  64  63  94 W21       30.04F VSB 1/4
LYNCHBURG      CLOUDY    72  71  97 S9        29.96S
DANVILLE       CLOUDY    73  72  96 SW8       29.98R
SOUTH BOSTON*  CLOUDY    73  72  95 S8        29.97S
MARTINSVILLE   CLOUDY    72  70  95 CALM      30.01S
ROANOKE        CLOUDY    74  70  87 CALM      29.97S
BLACKSBURG     LGT RAIN  70  68  95 CALM      30.03S
DUBLIN*        LGT RAIN  72  66  83 W3        30.02S
MARION*        LGT RAIN  69  65  89 SW3       30.05S
HILLSVILLE*    CLOUDY    69  65  86 CALM      30.04S
RICHLANDS*     LGT RAIN  69  67  92 SW8       30.02S
WISE*          LGT RAIN  70  68  94 SW17G25   30.02S
ABINGDON*      PTSUNNY   71  71 100 CALM      30.01S
$$

MDZ021>025-VAZ099-100-231300-
SOUTHERN MARYLAND AND THE DELMARVA PENINSULA

CITY           SKY/WX    TMP DP  RH WIND       PRES   REMARKS
PATUXENT RIVER LGT RAIN  72  71  97 S7        29.91F
BAY BRIDGE APT HVY RAIN  72  72 100 SW10G22   29.90R FOG
LEONARDTOWN    CLOUDY    72  70  94 S5        29.93F
DOVER          PTSUNNY   77  77 100 SW15      29.86S
GEORGETOWN     MOSUNNY   79  70  74 SW10      29.91R
EASTON         RAIN      73  70  88 SW9G20    29.95R
CAMBRIDGE      CLOUDY    72  70  94 VRB7G21   29.93R FOG
SALISBURY      LGT RAIN  78  70  76 SW21G26   29.93R
OCEAN CITY     CLOUDY    78  72  81 W10       29.92S
WALLOPS ISLAND CLOUDY    78  72  81 W12       29.95R
ACCOMACK*      LGT RAIN  77  72  84 W10       29.96R
$$

NCZ012>017-030>032-231300-
NORTH CENTRAL AND EASTERN NORTH CAROLINA

CITY           SKY/WX    TMP DP  RH WIND       PRES   REMARKS
ROANOKE RAPIDS LGT RAIN  73  73 100 SW8       30.00R
RALEIGH        LGT RAIN  75  74  96 SW10      30.01S FOG
ELIZABETH CITY CLOUDY    78  76  93 SW9       30.00R
AHOSKIE*         N/A     73  73  97 S3        30.00R
EDENTON*       CLOUDY    79  75  88 CALM      30.01S
CURRITUCK*     CLOUDY    77  73  88 CALM      30.00R
KILL DEVIL HLS CLOUDY    77  75  91 CALM      29.99S
MANTEO         CLOUDY    77  75  92 W10       30.01R
CAPE HATTERAS  MOSUNNY   80  76  87 SW8       30.03R
TARBORO*       NOT AVBL
GOLDSBORO      CLOUDY    78  78 100 SW9       30.01R
WASHINGTON     CLOUDY    76  75  94 SW8       30.02R
GREENVILLE     MOSUNNY   77  77 100 SW8       30.03R
NEW BERN       CLOUDY    78  77  96 SW6       30.04R
WILMINGTON     CLOUDY    80  77  90 SW10      30.04S
$$

VAZ048-231300-
ELSEWHERE

CITY           SKY/WX    TMP DP  RH WIND       PRES   REMARKS
HARRISBURG PA  LGT RAIN  73  72  96 VRB7      29.82R
BALTIMORE      LGT RAIN  71  71 100 S6        29.86F FOG
ANNAPOLIS      LGT RAIN  73  73 100 CALM      29.88S FOG
ANDREWS AFB    LGT RAIN  72  70  94 S10       29.87F
PHILADELPHIA   CLOUDY    77  72  84 SW12      29.85S
HENDERSON NC   LGT RAIN  70  69  96 S8        30.00R
GREENSBORO     LGT RAIN  74  74 100 SW7       30.00R
ROCKY MOUNT    LGT RAIN  76  75  97 SW8       30.01R
$$

VAZ100-231300-
MARINE

STATION/POSITION TIME  TEMP    WIND        PRES    WAVE   SWELL
                       AIR SEA DIR/SP/G            HT/PER HT/PER
                 (UTC) (F)     (DEG/KT/KT) (MB)    (FT/S) (FT/S)
BRANDYWINE LGT   1136   75     240/ 16/ 17 1012.2R
CAPE MAY NJ      1148   72 68  220/  8/ 11 1011.9R
LEWES DE         1148   78 69  250/ 10/ 13 1012.2R
15NM E FENWICK I 1150   71 68  200/ 14/ 14 1012.9F   2/ 6   2/ 6
OCEAN-CITY-INLET 1148   76 65  270/  9/ 11 1013.2S
WACHAPREAGUE VA  1148   77 77  240/  4/  8 1014.2R
THOMAS POINT MD  1200   73 77  220/  9/ 10   N/A
GOOSES REEF MD   1150   74     230/ 12/ 17 1013.4R
COVE POINT MD    1148   72     220/ 12/ 15 1013.4F
SOLOMONS ISLAND  1148   73 76  200/  9/ 10   N/A
BISHOPS HEAD MD  1148   72 80  230/ 13/ 18 1013.4R
PINEY POINT MD   1142          220/  7/  9   N/A
POTOMAC MD       1150   75     240/ 10/ 12 1012.6R
CAMBRIDGE MD     1148   72 81              1014.0R
LEWISETTA VA     1148   74 79  220/  7/  8 1013.3F
RAPPAHANNOCK LGT 1142          230/ 11/ 15 1014.8R
STINGRAY PT      1150   76     260/  8/ 10 1013.9R
YORK RVR RNG VA  1148   76     250/  9/ 10 1014.6R
YORKTOWN VA      1148   75 77  220/  3/  5 1014.0R
JAMESTOWN VA     1150   75     210/  8/ 10   N/A
DOMINION TERM VA 1148   77     230/  9/ 10 1014.8R
KIPTOPEKE VA     1142      76                N/A
CHES BAY BRIDGE  1148   76 72  230/  8/ 10 1014.5R
CAPE HENRY VA    1148   76     220/  5/  9   N/A
WILLOUBY STN VA  1148   76     220/ 11/ 12 1014.4R
S CRANEY ISL VA  1148   76     200/  9/ 11 1014.4S
CAPE HENRY BUOY  1130      72                N/A     2/ 8
1ST LANDING BUOY 1150   77                 1014.6R
CAPE CHARLES BUO 1151      65                N/A     2/ 8
64NM E OF VA BCH 1150   73 72  230/  6/  8 1015.5R   3/ 9   3/ 9
DUCK PIER NC     1148   77 62  230/ 13/ 16 1015.5R
44100 DUCK FRF   1105      68                N/A     2/ 8
OREGON INLET NC  1136   78 78  230/ 13/ 15 1015.9R
HATTERAS NC      1148   78 78  230/  7/  9 1016.7R
DIAMOND SHLS NC  1150   80 80  240/ 14/ 16 1016.8R   3/ 8   2/ 8
CAPE LOOKOUT NC  1100   79     240/ 10/ 13 1016.7R
$$




USA.gov is the U.S. government's official web portal to all federal, state and local government web resources and services.